Location: Czu?�w
(50.1404°N, 18.9919°E)
Time: 02:32:34
(UTC+00:00)

USA 215 - Pass Details

Date: 27 October 2020
Orbit: 1102 x 1106 km, 123.0° (Epoch: 23 November)

Event Time Altitude Azimuth Distance (km) Brightness Sun altitude
Exits shadow 19:38:57 41° 278° (W) 1,539 4.2 -39.5°
Drops below altitude 10° 19:43:16 10° 300° (WNW) 2,966 6.2 -40.1°
Sets 19:45:48 0° 304° (WNW) 3,927 7.0 -40.5°
